Location: Grassland Mountain Observatory
(35.7543°N, 82.8038°W)
Time: 17:58:50
(UTC-05:00)

X-37B - Pass Details

Date: 11 December 2021
Orbit: 331 x 339 km, 45.0° (Epoch: 27 January)

Event Time Altitude Azimuth Distance (km) Brightness Sun altitude
Rises 18:03:47 0° 286° (WNW) 2,096 5.2 -9.2°
Reaches altitude 10° 18:06:22 10° 312° (NW) 1,259 3.5 -9.7°
Maximum altitude 18:08:06 15° 350° (N) 1,023 2.6 -10.1°
Enters shadow 18:09:45 10° 26° (NNE) 1,240 2.7 -10.4°
